Year,Month,Day,Hour,Minute,Value (Times are PST for temperature in C)
2012,09,20,00,00,11.80
2012,09,20,00,01,11.80
2012,09,20,00,02,11.80
2012,09,20,00,03,11.80
2012,09,20,00,04,11.80
2012,09,20,00,05,11.80
2012,09,20,00,06,11.80
2012,09,20,00,07,11.70
2012,09,20,00,08,11.70
2012,09,20,00,09,11.70
2012,09,20,00,10,11.70
2012,09,20,00,11,11.70
2012,09,20,00,12,11.70
2012,09,20,00,13,11.70
2012,09,20,00,14,11.70
2012,09,20,00,15,11.60
2012,09,20,00,16,11.60
2012,09,20,00,17,11.60
2012,09,20,00,18,11.60
2012,09,20,00,19,11.60
2012,09,20,00,20,11.60
2012,09,20,00,21,11.60
2012,09,20,00,22,11.50
2012,09,20,00,23,11.50
2012,09,20,00,24,11.50
2012,09,20,00,25,11.40
2012,09,20,00,26,11.40
2012,09,20,00,27,11.40
2012,09,20,00,28,11.40
2012,09,20,00,29,11.40
2012,09,20,00,30,11.40
2012,09,20,00,31,11.30
2012,09,20,00,32,11.30
2012,09,20,00,33,11.30
2012,09,20,00,34,11.30
2012,09,20,00,35,11.30
2012,09,20,00,36,11.30
2012,09,20,00,37,11.30
2012,09,20,00,38,11.30
2012,09,20,00,39,11.30
2012,09,20,00,40,11.30
2012,09,20,00,41,11.20
2012,09,20,00,42,11.20
2012,09,20,00,43,11.20
2012,09,20,00,44,11.20
2012,09,20,00,45,11.20
2012,09,20,00,46,11.20
2012,09,20,00,47,11.20
2012,09,20,00,48,11.20
2012,09,20,00,49,11.20
2012,09,20,00,50,11.20
2012,09,20,00,51,11.20
2012,09,20,00,52,11.20
2012,09,20,00,53,11.20
2012,09,20,00,54,11.20
2012,09,20,00,55,11.20
2012,09,20,00,56,11.20
2012,09,20,00,57,11.20
2012,09,20,00,58,11.20
2012,09,20,00,59,11.20
2012,09,20,01,00,11.20
2012,09,20,01,01,11.20
2012,09,20,01,02,11.10
2012,09,20,01,03,11.10
2012,09,20,01,04,11.20
2012,09,20,01,05,11.20
2012,09,20,01,06,11.20
2012,09,20,01,07,11.10
2012,09,20,01,08,11.20
2012,09,20,01,09,11.20
2012,09,20,01,10,11.20
2012,09,20,01,11,11.20
2012,09,20,01,12,11.20
2012,09,20,01,13,11.20
2012,09,20,01,14,11.20
2012,09,20,01,15,11.20
2012,09,20,01,16,11.20
2012,09,20,01,17,11.20
2012,09,20,01,18,11.20
2012,09,20,01,19,11.20
2012,09,20,01,20,11.20
2012,09,20,01,21,11.10
2012,09,20,01,22,11.10
2012,09,20,01,23,11.10
2012,09,20,01,24,11.10
2012,09,20,01,25,11.10
2012,09,20,01,26,11.10
2012,09,20,01,27,11.10
2012,09,20,01,28,11.10
2012,09,20,01,29,11.00
2012,09,20,01,30,11.00
2012,09,20,01,31,11.00
2012,09,20,01,32,10.90
2012,09,20,01,33,10.90
2012,09,20,01,34,10.90
2012,09,20,01,35,10.90
2012,09,20,01,36,10.90
2012,09,20,01,37,10.90
2012,09,20,01,38,10.90
2012,09,20,01,39,10.90
2012,09,20,01,40,11.00
2012,09,20,01,41,11.00
2012,09,20,01,42,11.00
2012,09,20,01,43,11.10
2012,09,20,01,44,11.10
2012,09,20,01,45,11.10
2012,09,20,01,46,11.20
2012,09,20,01,47,11.20
2012,09,20,01,48,11.20
2012,09,20,01,49,11.20
2012,09,20,01,50,11.20
2012,09,20,01,51,11.20
2012,09,20,01,52,11.20
2012,09,20,01,53,11.20
2012,09,20,01,54,11.20
2012,09,20,01,55,11.10
2012,09,20,01,56,11.10
2012,09,20,01,57,11.10
2012,09,20,01,58,11.10
2012,09,20,01,59,11.10
2012,09,20,02,00,11.10
2012,09,20,02,01,11.10
2012,09,20,02,02,11.10
2012,09,20,02,03,11.10
2012,09,20,02,04,11.10
2012,09,20,02,05,11.10
2012,09,20,02,06,11.10
2012,09,20,02,07,11.10
2012,09,20,02,08,11.10
2012,09,20,02,09,11.10
2012,09,20,02,10,11.10
2012,09,20,02,11,11.10
2012,09,20,02,12,11.00
2012,09,20,02,13,11.00
2012,09,20,02,14,11.00
2012,09,20,02,15,10.90
2012,09,20,02,16,10.90
2012,09,20,02,17,10.90
2012,09,20,02,18,10.90
2012,09,20,02,19,10.80
2012,09,20,02,20,10.80
2012,09,20,02,21,10.80
2012,09,20,02,22,10.80
2012,09,20,02,23,10.80
2012,09,20,02,24,10.80
2012,09,20,02,25,10.80
2012,09,20,02,26,10.80
2012,09,20,02,27,10.80
2012,09,20,02,28,10.70
2012,09,20,02,29,10.70
2012,09,20,02,30,10.70
2012,09,20,02,31,10.70
2012,09,20,02,32,10.70
2012,09,20,02,33,10.70
2012,09,20,02,34,10.70
2012,09,20,02,35,10.70
2012,09,20,02,36,10.70
2012,09,20,02,37,10.70
2012,09,20,02,38,10.70
2012,09,20,02,39,10.70
2012,09,20,02,40,10.60
2012,09,20,02,41,10.60
2012,09,20,02,42,10.70
2012,09,20,02,43,10.70
2012,09,20,02,44,10.70
2012,09,20,02,45,10.70
2012,09,20,02,46,10.70
2012,09,20,02,47,10.70
2012,09,20,02,48,10.70
2012,09,20,02,49,10.70
2012,09,20,02,50,10.70
2012,09,20,02,51,10.70
2012,09,20,02,52,10.70
2012,09,20,02,53,10.70
2012,09,20,02,54,10.60
2012,09,20,02,55,10.60
2012,09,20,02,56,10.60
2012,09,20,02,57,10.60
2012,09,20,02,58,10.60
2012,09,20,02,59,10.60
2012,09,20,03,00,10.60
2012,09,20,03,01,10.60
2012,09,20,03,02,10.60
2012,09,20,03,03,10.60
2012,09,20,03,04,10.60
2012,09,20,03,05,10.60
2012,09,20,03,06,10.60
2012,09,20,03,07,10.60
2012,09,20,03,08,10.60
2012,09,20,03,09,10.60
2012,09,20,03,10,10.60
2012,09,20,03,11,10.60
2012,09,20,03,12,10.60
2012,09,20,03,13,10.60
2012,09,20,03,14,10.60
2012,09,20,03,15,10.60
2012,09,20,03,16,10.60
2012,09,20,03,17,10.60
2012,09,20,03,18,10.60
2012,09,20,03,19,10.60
2012,09,20,03,20,10.60
2012,09,20,03,21,10.60
2012,09,20,03,22,10.50
2012,09,20,03,23,10.50
2012,09,20,03,24,10.50
2012,09,20,03,25,10.50
2012,09,20,03,26,10.60
2012,09,20,03,27,10.60
2012,09,20,03,28,10.60
2012,09,20,03,29,10.60
2012,09,20,03,30,10.60
2012,09,20,03,31,10.60
2012,09,20,03,32,10.60
2012,09,20,03,33,10.60
2012,09,20,03,34,10.60
2012,09,20,03,35,10.60
2012,09,20,03,36,10.60
2012,09,20,03,37,10.60
2012,09,20,03,38,10.60
2012,09,20,03,39,10.60
2012,09,20,03,40,10.60
2012,09,20,03,41,10.60
2012,09,20,03,42,10.60
2012,09,20,03,43,10.60
2012,09,20,03,44,10.60
2012,09,20,03,45,10.50
2012,09,20,03,46,10.50
2012,09,20,03,47,10.50
2012,09,20,03,48,10.50
2012,09,20,03,49,10.40
2012,09,20,03,50,10.40
2012,09,20,03,51,10.40
2012,09,20,03,52,10.40
2012,09,20,03,53,10.40
2012,09,20,03,54,10.40
2012,09,20,03,55,10.40
2012,09,20,03,56,10.40
2012,09,20,03,57,10.40
2012,09,20,03,58,10.40
2012,09,20,03,59,10.40
2012,09,20,04,00,10.40
2012,09,20,04,01,10.40
2012,09,20,04,02,10.40
2012,09,20,04,03,10.40
2012,09,20,04,04,10.40
2012,09,20,04,05,10.40
2012,09,20,04,06,10.40
2012,09,20,04,07,10.40
2012,09,20,04,08,10.40
2012,09,20,04,09,10.40
2012,09,20,04,10,10.40
2012,09,20,04,11,10.40
2012,09,20,04,12,10.40
2012,09,20,04,13,10.40
2012,09,20,04,14,10.40
2012,09,20,04,15,10.40
2012,09,20,04,16,10.40
2012,09,20,04,17,10.40
2012,09,20,04,18,10.40
2012,09,20,04,19,10.40
2012,09,20,04,20,10.40
2012,09,20,04,21,10.40
2012,09,20,04,22,10.40
2012,09,20,04,23,10.40
2012,09,20,04,24,10.40
2012,09,20,04,25,10.30
2012,09,20,04,26,10.30
2012,09,20,04,27,10.30
2012,09,20,04,28,10.30
2012,09,20,04,29,10.30
2012,09,20,04,30,10.30
2012,09,20,04,31,10.30
2012,09,20,04,32,10.30
2012,09,20,04,33,10.30
2012,09,20,04,34,10.30
2012,09,20,04,35,10.30
2012,09,20,04,36,10.30
2012,09,20,04,37,10.30
2012,09,20,04,38,10.20
2012,09,20,04,39,10.20
2012,09,20,04,40,10.20
2012,09,20,04,41,10.20
2012,09,20,04,42,10.20
2012,09,20,04,43,10.20
2012,09,20,04,44,10.20
2012,09,20,04,45,10.20
2012,09,20,04,46,10.30
2012,09,20,04,47,10.20
2012,09,20,04,48,10.30
2012,09,20,04,49,10.30
2012,09,20,04,50,10.30
2012,09,20,04,51,10.30
2012,09,20,04,52,10.30
2012,09,20,04,53,10.30
2012,09,20,04,54,10.30
2012,09,20,04,55,10.30
2012,09,20,04,56,10.30
2012,09,20,04,57,10.30
2012,09,20,04,58,10.30
2012,09,20,04,59,10.30
2012,09,20,05,00,10.30
2012,09,20,05,01,10.30
2012,09,20,05,02,10.30
2012,09,20,05,03,10.30
2012,09,20,05,04,10.30
2012,09,20,05,05,10.30
2012,09,20,05,06,10.40
2012,09,20,05,07,10.30
2012,09,20,05,08,10.30
2012,09,20,05,09,10.30
2012,09,20,05,10,10.30
2012,09,20,05,11,10.30
2012,09,20,05,12,10.30
2012,09,20,05,13,10.30
2012,09,20,05,14,10.30
2012,09,20,05,15,10.30
2012,09,20,05,16,10.30
2012,09,20,05,17,10.30
2012,09,20,05,18,10.30
2012,09,20,05,19,10.20
2012,09,20,05,20,10.20
2012,09,20,05,21,10.20
2012,09,20,05,22,10.20
2012,09,20,05,23,10.20
2012,09,20,05,24,10.20
2012,09,20,05,25,10.20
2012,09,20,05,26,10.20
2012,09,20,05,27,10.20
2012,09,20,05,28,10.20
2012,09,20,05,29,10.20
2012,09,20,05,30,10.30
2012,09,20,05,31,10.30
2012,09,20,05,32,10.30
2012,09,20,05,33,10.30
2012,09,20,05,34,10.30
2012,09,20,05,35,10.30
2012,09,20,05,36,10.30
2012,09,20,05,37,10.30
2012,09,20,05,38,10.30
2012,09,20,05,39,10.30
2012,09,20,05,40,10.30
2012,09,20,05,41,10.30
2012,09,20,05,42,10.30
2012,09,20,05,43,10.30
2012,09,20,05,44,10.20
2012,09,20,05,45,10.20
2012,09,20,05,46,10.20
2012,09,20,05,47,10.20
2012,09,20,05,48,10.20
2012,09,20,05,49,10.20
2012,09,20,05,50,10.20
2012,09,20,05,51,10.20
2012,09,20,05,52,10.20
2012,09,20,05,53,10.20
2012,09,20,05,54,10.20
2012,09,20,05,55,10.20
2012,09,20,05,56,10.20
2012,09,20,05,57,10.20
2012,09,20,05,58,10.20
2012,09,20,05,59,10.20
2012,09,20,06,00,10.20
2012,09,20,06,01,10.20
2012,09,20,06,02,10.20
2012,09,20,06,03,10.20
2012,09,20,06,04,10.20
2012,09,20,06,05,10.20
2012,09,20,06,06,10.20
2012,09,20,06,07,10.20
2012,09,20,06,08,10.20
2012,09,20,06,09,10.20
2012,09,20,06,10,10.20
2012,09,20,06,11,10.20
2012,09,20,06,12,10.20
2012,09,20,06,13,10.20
2012,09,20,06,14,10.20
2012,09,20,06,15,10.20
2012,09,20,06,16,10.20
2012,09,20,06,17,10.20
2012,09,20,06,18,10.20
2012,09,20,06,19,10.20
2012,09,20,06,20,10.20
2012,09,20,06,21,10.20
2012,09,20,06,22,10.20
2012,09,20,06,23,10.10
2012,09,20,06,24,10.10
2012,09,20,06,25,10.10
2012,09,20,06,26,10.10
2012,09,20,06,27,10.20
2012,09,20,06,28,10.10
2012,09,20,06,29,10.10
2012,09,20,06,30,10.10
2012,09,20,06,31,10.10
2012,09,20,06,32,10.10
2012,09,20,06,33,10.10
2012,09,20,06,34,10.10
2012,09,20,06,35,10.10
2012,09,20,06,36,10.10
2012,09,20,06,37,10.00
2012,09,20,06,38,10.00
2012,09,20,06,39,10.00
2012,09,20,06,40,10.00
2012,09,20,06,41,10.00
2012,09,20,06,42,10.00
2012,09,20,06,43,10.00
2012,09,20,06,44,10.00
2012,09,20,06,45,9.90
2012,09,20,06,46,10.00
2012,09,20,06,47,10.00
2012,09,20,06,48,10.00
2012,09,20,06,49,10.00
2012,09,20,06,50,10.00
2012,09,20,06,51,10.00
2012,09,20,06,52,10.00
2012,09,20,06,53,10.00
2012,09,20,06,54,10.00
2012,09,20,06,55,10.00
2012,09,20,06,56,10.00
2012,09,20,06,57,10.00
2012,09,20,06,58,10.00
2012,09,20,06,59,10.00
2012,09,20,07,00,10.10
2012,09,20,07,01,10.10
2012,09,20,07,02,10.10
2012,09,20,07,03,10.10
2012,09,20,07,04,10.00
2012,09,20,07,05,10.00
2012,09,20,07,06,10.00
2012,09,20,07,07,10.00
2012,09,20,07,08,10.10
2012,09,20,07,09,10.10
2012,09,20,07,10,10.10
2012,09,20,07,11,10.10
2012,09,20,07,12,10.10
2012,09,20,07,13,10.10
2012,09,20,07,14,10.10
2012,09,20,07,15,10.20
2012,09,20,07,16,10.20
2012,09,20,07,17,10.20
2012,09,20,07,18,10.30
2012,09,20,07,19,10.30
2012,09,20,07,20,10.30
2012,09,20,07,21,10.40
2012,09,20,07,22,10.40
2012,09,20,07,23,10.40
2012,09,20,07,24,10.40
2012,09,20,07,25,10.40
2012,09,20,07,26,10.40
2012,09,20,07,27,10.40
2012,09,20,07,28,10.40
2012,09,20,07,29,10.40
2012,09,20,07,30,10.40
2012,09,20,07,31,10.40
2012,09,20,07,32,10.40
2012,09,20,07,33,10.40
2012,09,20,07,34,10.30
2012,09,20,07,35,10.30
2012,09,20,07,36,10.30
2012,09,20,07,37,10.30
2012,09,20,07,38,10.30
2012,09,20,07,39,10.40
2012,09,20,07,40,10.40
2012,09,20,07,41,10.40
2012,09,20,07,42,10.40
2012,09,20,07,43,10.50
2012,09,20,07,44,10.60
2012,09,20,07,45,10.60
2012,09,20,07,46,10.70
2012,09,20,07,47,10.70
2012,09,20,07,48,10.80
2012,09,20,07,49,10.90
2012,09,20,07,50,10.90
2012,09,20,07,51,11.00
2012,09,20,07,52,11.10
2012,09,20,07,53,11.20
2012,09,20,07,54,11.30
2012,09,20,07,55,11.40
2012,09,20,07,56,11.50
2012,09,20,07,57,11.60
2012,09,20,07,58,11.70
2012,09,20,07,59,11.80
2012,09,20,08,00,11.90
2012,09,20,08,01,12.00
2012,09,20,08,02,12.10
2012,09,20,08,03,12.20
2012,09,20,08,04,12.30
2012,09,20,08,05,12.30
2012,09,20,08,06,12.40
2012,09,20,08,07,12.50
2012,09,20,08,08,12.60
2012,09,20,08,09,12.60
2012,09,20,08,10,12.70
2012,09,20,08,11,12.80
2012,09,20,08,12,12.90
2012,09,20,08,13,13.00
2012,09,20,08,14,13.10
2012,09,20,08,15,13.20
2012,09,20,08,16,13.30
2012,09,20,08,17,13.40
2012,09,20,08,18,13.50
2012,09,20,08,19,13.60
2012,09,20,08,20,13.70
2012,09,20,08,21,13.80
2012,09,20,08,22,13.90
2012,09,20,08,23,14.00
2012,09,20,08,24,14.20
2012,09,20,08,25,14.30
2012,09,20,08,26,14.40
2012,09,20,08,27,14.60
2012,09,20,08,28,14.70
2012,09,20,08,29,14.90
2012,09,20,08,30,15.00
2012,09,20,08,31,15.10
2012,09,20,08,32,15.30
2012,09,20,08,33,15.40
2012,09,20,08,34,15.50
2012,09,20,08,35,15.60
2012,09,20,08,36,15.70
2012,09,20,08,37,15.90
2012,09,20,08,38,16.00
2012,09,20,08,39,16.00
2012,09,20,08,40,16.10
2012,09,20,08,41,16.20
2012,09,20,08,42,16.20
2012,09,20,08,43,16.30
2012,09,20,08,44,16.40
2012,09,20,08,45,16.50
2012,09,20,08,46,16.50
2012,09,20,08,47,16.60
2012,09,20,08,48,16.60
2012,09,20,08,49,16.60
2012,09,20,08,50,16.70
2012,09,20,08,51,16.70
2012,09,20,08,52,16.70
2012,09,20,08,53,16.80
2012,09,20,08,54,16.80
2012,09,20,08,55,16.80
2012,09,20,08,56,16.90
2012,09,20,08,57,16.90
2012,09,20,08,58,17.00
2012,09,20,08,59,17.10
2012,09,20,09,00,17.10
2012,09,20,09,01,17.20
2012,09,20,09,02,17.20
2012,09,20,09,03,17.30
2012,09,20,09,04,17.40
2012,09,20,09,05,17.50
2012,09,20,09,06,17.60
2012,09,20,09,07,17.60
2012,09,20,09,08,17.70
2012,09,20,09,09,17.70
2012,09,20,09,10,17.80
2012,09,20,09,11,17.80
2012,09,20,09,12,17.90
2012,09,20,09,13,17.90
2012,09,20,09,14,18.00
2012,09,20,09,15,18.10
2012,09,20,09,16,18.10
2012,09,20,09,17,18.10
2012,09,20,09,18,18.10
2012,09,20,09,19,18.10
2012,09,20,09,20,18.10
2012,09,20,09,21,18.00
2012,09,20,09,22,18.00
2012,09,20,09,23,17.90
2012,09,20,09,24,17.80
2012,09,20,09,25,17.80
2012,09,20,09,26,17.70
2012,09,20,09,27,17.70
2012,09,20,09,28,17.60
2012,09,20,09,29,17.60
2012,09,20,09,30,17.50
2012,09,20,09,31,17.40
2012,09,20,09,32,17.40
2012,09,20,09,33,17.40
2012,09,20,09,34,17.40
2012,09,20,09,35,17.30
2012,09,20,09,36,17.30
2012,09,20,09,37,17.30
2012,09,20,09,38,17.30
2012,09,20,09,39,17.30
2012,09,20,09,40,17.30
2012,09,20,09,41,17.30
2012,09,20,09,42,17.30
2012,09,20,09,43,17.20
2012,09,20,09,44,17.20
2012,09,20,09,45,17.30
2012,09,20,09,46,17.30
2012,09,20,09,47,17.30
2012,09,20,09,48,17.30
2012,09,20,09,49,17.30
2012,09,20,09,50,17.20
2012,09,20,09,51,17.20
2012,09,20,09,52,17.20
2012,09,20,09,53,17.20
2012,09,20,09,54,17.20
2012,09,20,09,55,17.20
2012,09,20,09,56,17.20
2012,09,20,09,57,17.10
2012,09,20,09,58,17.10
2012,09,20,09,59,17.10
2012,09,20,10,00,17.10
2012,09,20,10,01,17.10
2012,09,20,10,02,17.10
2012,09,20,10,03,17.00
2012,09,20,10,04,17.00
2012,09,20,10,05,17.00
2012,09,20,10,06,17.00
2012,09,20,10,07,17.00
2012,09,20,10,08,16.90
2012,09,20,10,09,16.90
2012,09,20,10,10,16.90
2012,09,20,10,11,16.90
2012,09,20,10,12,16.90
2012,09,20,10,13,16.80
2012,09,20,10,14,16.80
2012,09,20,10,15,16.90
2012,09,20,10,16,16.90
2012,09,20,10,17,16.90
2012,09,20,10,18,17.00
2012,09,20,10,19,17.00
2012,09,20,10,20,17.00
2012,09,20,10,21,17.10
2012,09,20,10,22,17.10
2012,09,20,10,23,17.20
2012,09,20,10,24,17.20
2012,09,20,10,25,17.20
2012,09,20,10,26,17.30
2012,09,20,10,27,17.30
2012,09,20,10,28,17.30
2012,09,20,10,29,17.30
2012,09,20,10,30,17.30
2012,09,20,10,31,17.30
2012,09,20,10,32,17.30
2012,09,20,10,33,17.30
2012,09,20,10,34,17.30
2012,09,20,10,35,17.40
2012,09,20,10,36,17.50
2012,09,20,10,37,17.50
2012,09,20,10,38,17.50
2012,09,20,10,39,17.50
2012,09,20,10,40,17.50
2012,09,20,10,41,17.50
2012,09,20,10,42,17.50
2012,09,20,10,43,17.40
2012,09,20,10,44,17.40
2012,09,20,10,45,17.40
2012,09,20,10,46,17.40
2012,09,20,10,47,17.40
2012,09,20,10,48,17.30
2012,09,20,10,49,17.30
2012,09,20,10,50,17.30
2012,09,20,10,51,17.30
2012,09,20,10,52,17.30
2012,09,20,10,53,17.30
2012,09,20,10,54,17.30
2012,09,20,10,55,17.30
2012,09,20,10,56,17.30
2012,09,20,10,57,17.40
2012,09,20,10,58,17.40
2012,09,20,10,59,17.50
2012,09,20,11,00,17.40
2012,09,20,11,01,17.40
2012,09,20,11,02,17.40
2012,09,20,11,03,17.40
2012,09,20,11,04,17.40
2012,09,20,11,05,17.50
2012,09,20,11,06,17.50
2012,09,20,11,07,17.60
2012,09,20,11,08,17.60
2012,09,20,11,09,17.60
2012,09,20,11,10,17.70
2012,09,20,11,11,17.70
2012,09,20,11,12,17.80
2012,09,20,11,13,17.80
2012,09,20,11,14,17.80
2012,09,20,11,15,17.90
2012,09,20,11,16,17.90
2012,09,20,11,17,17.90
2012,09,20,11,18,17.90
2012,09,20,11,19,17.80
2012,09,20,11,20,17.80
2012,09,20,11,21,17.80
2012,09,20,11,22,17.80
2012,09,20,11,23,17.80
2012,09,20,11,24,17.80
2012,09,20,11,25,17.80
2012,09,20,11,26,17.80
2012,09,20,11,27,17.70
2012,09,20,11,28,17.80
2012,09,20,11,29,17.80
2012,09,20,11,30,17.80
2012,09,20,11,31,17.80
2012,09,20,11,32,17.80
2012,09,20,11,33,17.90
2012,09,20,11,34,17.90
2012,09,20,11,35,17.90
2012,09,20,11,36,17.90
2012,09,20,11,37,17.90
2012,09,20,11,38,17.90
2012,09,20,11,39,17.90
2012,09,20,11,40,17.90
2012,09,20,11,41,17.90
2012,09,20,11,42,17.90
2012,09,20,11,43,17.80
2012,09,20,11,44,17.80
2012,09,20,11,45,17.80
2012,09,20,11,46,17.80
2012,09,20,11,47,17.80
2012,09,20,11,48,17.80
2012,09,20,11,49,17.80
2012,09,20,11,50,17.80
2012,09,20,11,51,17.80
2012,09,20,11,52,17.80
2012,09,20,11,53,17.80
2012,09,20,11,54,17.80
2012,09,20,11,55,17.80
2012,09,20,11,56,17.80
2012,09,20,11,57,17.70
2012,09,20,11,58,17.70
2012,09,20,11,59,17.80
2012,09,20,12,00,17.80
2012,09,20,12,01,17.80
2012,09,20,12,02,17.80
2012,09,20,12,03,17.80
2012,09,20,12,04,17.70
2012,09,20,12,05,17.70
2012,09,20,12,06,17.80
2012,09,20,12,07,17.80
2012,09,20,12,08,17.90
2012,09,20,12,09,17.90
2012,09,20,12,10,17.90
2012,09,20,12,11,17.90
2012,09,20,12,12,17.90
2012,09,20,12,13,17.90
2012,09,20,12,14,17.90
2012,09,20,12,15,17.90
2012,09,20,12,16,17.90
2012,09,20,12,17,17.90
2012,09,20,12,18,18.00
2012,09,20,12,19,18.00
2012,09,20,12,20,18.10
2012,09,20,12,21,18.10
2012,09,20,12,22,18.20
2012,09,20,12,23,18.20
2012,09,20,12,24,18.30
2012,09,20,12,25,18.40
2012,09,20,12,26,18.50
2012,09,20,12,27,18.50
2012,09,20,12,28,18.60
2012,09,20,12,29,18.70
2012,09,20,12,30,18.70
2012,09,20,12,31,18.80
2012,09,20,12,32,18.80
2012,09,20,12,33,18.90
2012,09,20,12,34,18.90
2012,09,20,12,35,18.90
2012,09,20,12,36,18.80
2012,09,20,12,37,18.80
2012,09,20,12,38,18.80
2012,09,20,12,39,18.80
2012,09,20,12,40,18.80
2012,09,20,12,41,18.80
2012,09,20,12,42,18.70
2012,09,20,12,43,18.70
2012,09,20,12,44,18.60
2012,09,20,12,45,18.60
2012,09,20,12,46,18.60
2012,09,20,12,47,18.60
2012,09,20,12,48,18.60
2012,09,20,12,49,18.70
2012,09,20,12,50,18.70
2012,09,20,12,51,18.60
2012,09,20,12,52,18.50
2012,09,20,12,53,18.40
2012,09,20,12,54,18.30
2012,09,20,12,55,18.30
2012,09,20,12,56,18.30
2012,09,20,12,57,18.30
2012,09,20,12,58,18.40
2012,09,20,12,59,18.50
2012,09,20,13,00,18.60
2012,09,20,13,01,18.70
2012,09,20,13,02,18.80
2012,09,20,13,03,18.80
2012,09,20,13,04,18.90
2012,09,20,13,05,19.00
2012,09,20,13,06,19.10
2012,09,20,13,07,19.20
2012,09,20,13,08,19.20
2012,09,20,13,09,19.30
2012,09,20,13,10,19.30
2012,09,20,13,11,19.30
2012,09,20,13,12,19.30
2012,09,20,13,13,19.30
2012,09,20,13,14,19.30
2012,09,20,13,15,19.30
2012,09,20,13,16,19.40
2012,09,20,13,17,19.40
2012,09,20,13,18,19.40
2012,09,20,13,19,19.50
2012,09,20,13,20,19.50
2012,09,20,13,21,19.60
2012,09,20,13,22,19.60
2012,09,20,13,23,19.60
2012,09,20,13,24,19.60
2012,09,20,13,25,19.60
2012,09,20,13,26,19.60
2012,09,20,13,27,19.60
2012,09,20,13,28,19.60
2012,09,20,13,29,19.60
2012,09,20,13,30,19.60
2012,09,20,13,31,19.60
2012,09,20,13,32,19.60
2012,09,20,13,33,19.60
2012,09,20,13,34,19.60
2012,09,20,13,35,19.50
2012,09,20,13,36,19.40
2012,09,20,13,37,19.40
2012,09,20,13,38,19.40
2012,09,20,13,39,19.30
2012,09,20,13,40,19.30
2012,09,20,13,41,19.30
2012,09,20,13,42,19.30
2012,09,20,13,43,19.30
2012,09,20,13,44,19.30
2012,09,20,13,45,19.30
2012,09,20,13,46,19.20
2012,09,20,13,47,19.30
2012,09,20,13,48,19.20
2012,09,20,13,49,19.20
2012,09,20,13,50,19.30
2012,09,20,13,51,19.30
2012,09,20,13,52,19.30
2012,09,20,13,53,19.20
2012,09,20,13,54,19.10
2012,09,20,13,55,19.00
2012,09,20,13,56,18.90
2012,09,20,13,57,18.90
2012,09,20,13,58,18.90
2012,09,20,13,59,18.90
2012,09,20,14,00,18.90
2012,09,20,14,01,19.00
2012,09,20,14,02,19.00
2012,09,20,14,03,19.10
2012,09,20,14,04,19.10
2012,09,20,14,05,19.10
2012,09,20,14,06,19.10
2012,09,20,14,07,19.20
2012,09,20,14,08,19.20
2012,09,20,14,09,19.30
2012,09,20,14,10,19.30
2012,09,20,14,11,19.30
2012,09,20,14,12,19.30
2012,09,20,14,13,19.30
2012,09,20,14,14,19.30
2012,09,20,14,15,19.30
2012,09,20,14,16,19.40
2012,09,20,14,17,19.40
2012,09,20,14,18,19.40
2012,09,20,14,19,19.40
2012,09,20,14,20,19.40
2012,09,20,14,21,19.30
2012,09,20,14,22,19.40
2012,09,20,14,23,19.50
2012,09,20,14,24,19.50
2012,09,20,14,25,19.60
2012,09,20,14,26,19.60
2012,09,20,14,27,19.60
2012,09,20,14,28,19.60
2012,09,20,14,29,19.60
2012,09,20,14,30,19.60
2012,09,20,14,31,19.70
2012,09,20,14,32,19.70
2012,09,20,14,33,19.70
2012,09,20,14,34,19.70
2012,09,20,14,35,19.70
2012,09,20,14,36,19.70
2012,09,20,14,37,19.70
2012,09,20,14,38,19.70
2012,09,20,14,39,19.70
2012,09,20,14,40,19.80
2012,09,20,14,41,19.90
2012,09,20,14,42,19.90
2012,09,20,14,43,20.00
2012,09,20,14,44,20.10
2012,09,20,14,45,20.10
2012,09,20,14,46,20.20
2012,09,20,14,47,20.20
2012,09,20,14,48,20.30
2012,09,20,14,49,20.30
2012,09,20,14,50,20.30
2012,09,20,14,51,20.40
2012,09,20,14,52,20.40
2012,09,20,14,53,20.50
2012,09,20,14,54,20.60
2012,09,20,14,55,20.70
2012,09,20,14,56,20.80
2012,09,20,14,57,20.90
2012,09,20,14,58,21.00
2012,09,20,14,59,21.10
2012,09,20,15,00,21.20
2012,09,20,15,01,21.30
2012,09,20,15,02,21.40
2012,09,20,15,03,21.50
2012,09,20,15,04,21.60
2012,09,20,15,05,21.60
2012,09,20,15,06,21.60
2012,09,20,15,07,21.60
2012,09,20,15,08,21.60
2012,09,20,15,09,21.70
2012,09,20,15,10,21.70
2012,09,20,15,11,21.70
2012,09,20,15,12,21.80
2012,09,20,15,13,21.70
2012,09,20,15,14,21.70
2012,09,20,15,15,21.60
2012,09,20,15,16,21.50
2012,09,20,15,17,21.30
2012,09,20,15,18,21.20
2012,09,20,15,19,21.10
2012,09,20,15,20,21.00
2012,09,20,15,21,20.90
2012,09,20,15,22,20.80
2012,09,20,15,23,20.90
2012,09,20,15,24,20.90
2012,09,20,15,25,20.90
2012,09,20,15,26,20.90
2012,09,20,15,27,20.90
2012,09,20,15,28,20.90
2012,09,20,15,29,20.80
2012,09,20,15,30,20.80
2012,09,20,15,31,20.70
2012,09,20,15,32,20.70
2012,09,20,15,33,20.70
2012,09,20,15,34,20.70
2012,09,20,15,35,20.80
2012,09,20,15,36,20.80
2012,09,20,15,37,21.00
2012,09,20,15,38,21.10
2012,09,20,15,39,21.10
2012,09,20,15,40,21.10
2012,09,20,15,41,21.10
2012,09,20,15,42,21.10
2012,09,20,15,43,21.10
2012,09,20,15,44,21.00
2012,09,20,15,45,21.00
2012,09,20,15,46,20.90
2012,09,20,15,47,20.90
2012,09,20,15,48,20.90
2012,09,20,15,49,20.80
2012,09,20,15,50,20.80
2012,09,20,15,51,20.80
2012,09,20,15,52,20.90
2012,09,20,15,53,21.00
2012,09,20,15,54,21.00
2012,09,20,15,55,21.10
2012,09,20,15,56,21.10
2012,09,20,15,57,21.10
2012,09,20,15,58,21.10
2012,09,20,15,59,21.10
2012,09,20,16,00,21.10
2012,09,20,16,01,21.10
2012,09,20,16,02,21.10
2012,09,20,16,03,21.10
2012,09,20,16,04,21.20
2012,09,20,16,05,21.20
2012,09,20,16,06,21.20
2012,09,20,16,07,21.30
2012,09,20,16,08,21.30
2012,09,20,16,09,21.30
2012,09,20,16,10,21.40
2012,09,20,16,11,21.40
2012,09,20,16,12,21.40
2012,09,20,16,13,21.40
2012,09,20,16,14,21.50
2012,09,20,16,15,21.50
2012,09,20,16,16,21.50
2012,09,20,16,17,21.50
2012,09,20,16,18,21.50
2012,09,20,16,19,21.50
2012,09,20,16,20,21.50
2012,09,20,16,21,21.40
2012,09,20,16,22,21.40
2012,09,20,16,23,21.40
2012,09,20,16,24,21.50
2012,09,20,16,25,21.50
2012,09,20,16,26,21.50
2012,09,20,16,27,21.60
2012,09,20,16,28,21.60
2012,09,20,16,29,21.60
2012,09,20,16,30,21.60
2012,09,20,16,31,21.60
2012,09,20,16,32,21.60
2012,09,20,16,33,21.60
2012,09,20,16,34,21.60
2012,09,20,16,35,21.60
2012,09,20,16,36,21.60
2012,09,20,16,37,21.60
2012,09,20,16,38,21.60
2012,09,20,16,39,21.50
2012,09,20,16,40,21.50
2012,09,20,16,41,21.50
2012,09,20,16,42,21.50
2012,09,20,16,43,21.50
2012,09,20,16,44,21.50
2012,09,20,16,45,21.50
2012,09,20,16,46,21.50
2012,09,20,16,47,21.50
2012,09,20,16,48,21.60
2012,09,20,16,49,21.50
2012,09,20,16,50,21.60
2012,09,20,16,51,21.50
2012,09,20,16,52,21.50
2012,09,20,16,53,21.50
2012,09,20,16,54,21.50
2012,09,20,16,55,21.50
2012,09,20,16,56,21.60
2012,09,20,16,57,21.60
2012,09,20,16,58,21.60
2012,09,20,16,59,21.50
2012,09,20,17,00,21.50
2012,09,20,17,01,21.40
2012,09,20,17,02,21.40
2012,09,20,17,03,21.40
2012,09,20,17,04,21.40
2012,09,20,17,05,21.40
2012,09,20,17,06,21.40
2012,09,20,17,07,21.30
2012,09,20,17,08,21.40
2012,09,20,17,09,21.40
2012,09,20,17,10,21.40
2012,09,20,17,11,21.40
2012,09,20,17,12,21.40
2012,09,20,17,13,21.40
2012,09,20,17,14,21.40
2012,09,20,17,15,21.40
2012,09,20,17,16,21.40
2012,09,20,17,17,21.40
2012,09,20,17,18,21.40
2012,09,20,17,19,21.40